Hourly Data Report for June 21, 2021

MANIWAKI AIRPORT
QUEBEC
Current Station Operator: ECCC - MSC

46°16'29.000" N
75°59'31.000" W
199.70 m
7034482
71721
WMJ

Download Data

Hourly Data (June 2021)
Hourly Data Report for June 21, 2021
TIME
LST
Temp Definition
°C
Dew Point Definition
°C
Rel Hum Definition
%
Precip. Amount Definition
mm

Wind Dir Definition
10's deg

Wind Spd Definition
km/h
Visibility Definition
km
Stn Press Definition
kPa
Hmdx Definition


Wind Chill Definition


Weather Definition


00:00 14.5 13.3 93 0.0 18 1   98.09     LegendNANA
01:00 14.4 13.3 93 0.0 17 2   98.02     LegendNANA
02:00 14.4 13.0 92 0.0 12 1   97.93     LegendNANA
03:00 14.1 13.1 94 0.0   0   97.82     LegendNANA
04:00 12.9 12.3 96 0.0 20 2   97.79     LegendNANA
05:00 14.2 13.6 97 0.0 0 1   97.79     LegendNANA
06:00 16.5 14.9 90 0.0 19 1   97.70     LegendNANA
07:00 18.4 14.1 76 0.0 16 7   97.59     LegendNANA
08:00 20.5 13.8 65 0.0 16 16   97.45     LegendNANA
09:00 17.8 16.8 93 0.0 16 12   97.37     LegendNANA
10:00 18.8 17.4 91 0.0 16 13   97.28     LegendNANA
11:00 19.3 18.4 95 0.5 18 15   97.24     LegendNANA
12:00 21.1 19.1 88 0.0 19 20   97.16 28   LegendNANA
13:00 21.1 19.1 89 0.0 18 17   97.17 28   LegendNANA
14:00 22.6 19.8 84 0.0 20 17   97.10 30   LegendNANA
15:00 23.8 19.6 77 0.0 20 16   97.03 31   LegendNANA
16:00 25.3 19.0 68 0.0 21 19   96.98 32   LegendNANA
17:00 22.5 19.5 83 1.6 24 14   97.00 30   LegendNANA
18:00 23.1 19.9 82 0.0 21 13   97.03 31   LegendNANA
19:00 22.9 18.4 76 0.0 23 12   97.13 29   LegendNANA
20:00 20.7 17.0 79 0.0 22 12   97.26 26   LegendNANA
21:00 19.9 14.0 69 0.0 32 15   97.46     LegendNANA
22:00 18.1 13.4 74 0.0 30 23   97.59     LegendNANA
23:00 15.4 10.7 74 0.0 32 19   97.72     LegendNANA

Notes on Data Quality.

Legend

  • E = Estimated
  • M = Missing
  • NA = Not Available*
  • [empty] = Indicates an unobserved value
Date modified: